Tracking 19832 objects as of 25-Aug-2019
HD Live streaming from Space Station
objects crossing your sky now

OPS 0856

Track OPS 0856 now!
10-day predictions
OPS 0856 is classified as:


NORAD ID: 2403
Int'l Code: 1966-077A
Perigee: 3,669.1 km
Apogee: 3,717.1 km
Inclination: 90.2 °
Period: 167.5 minutes
Semi major axis: 10064 km
RCS: 10.2681 m2 (large)
Launch date: August 19, 1966
Source: United States (US)
Launch site: AIR FORCE WESTERN TEST RANGE (AFWTR)
aabbcc
Your satellite tracking list
Your tracking list is empty




NASA's NSSDC Master Catalog

Two Line Element Set (TLE):
1  2403U 66077A   19236.93908157 +.00000131 +00000-0 +63947-1 0  9993
2  2403 090.2226 250.1264 0023825 040.3244 319.9369 08.59888666312571
Source of the keplerian elements: AFSPC